Regional Weather Roundup
Issued by NWS

Home | Current Version | Previous Version | Text Only | Print | Product List | Glossary Off
Versions: 1 2 3 4 5 6 7 8 9 10 11 12 13 14 15 16 17 18 19 20 21 22 23 24 25 26 27 28 29 30 31 32 33 34 35 36 37 38 39 40 41 42 43 44 45 46 47 48 49 50

000
ASUS43 KBIS 291620
RWRND

NORTH DAKOTA REGIONAL WEATHER ROUNDUP
NATIONAL WEATHER SERVICE BISMARCK ND
1100 AM CDT SUN MAR 29 2015

NOTE: "FAIR" INDICATES FEW OR NO CLOUDS BELOW 12,000 FEET WITH NO
SIGNIFICANT WEATHER AND/OR OBSTRUCTIONS TO VISIBILITY.


NDZ001>003-009>011-017-291700-
NORTHWEST NORTH DAKOTA

CITY           SKY/WX    TMP DP  RH WIND       PRES   REMARKS
WILLISTON      SUNNY     46  37  71 W15       30.07R
MINOT          SUNNY     49  30  48 W20G26    29.99R
MINOT AFB      SUNNY     46  36  69 NW22G30   29.98S
$$

NDZ018>021-031>035-040>046-291700-
SOUTHWEST NORTH DAKOTA

CITY           SKY/WX    TMP DP  RH WIND       PRES   REMARKS
BISMARCK       SUNNY     48  32  53 NW20G26   30.05R
DICKINSON      MOSUNNY   44  36  73 NW17      30.07S
GARRISON         N/A     46  35  65 NW20      30.02S
HETTINGER ARPT SUNNY     46  35  65 NW21G29   30.12R
$$

NDZ004>008-012>016-024-026-027-054-291700-
NORTHEAST NORTH DAKOTA

CITY           SKY/WX    TMP DP  RH WIND       PRES   REMARKS
GRAND FORKS    PTSUNNY   45  36  70 N23G32    29.83R
GRND FRKS AFB  PTSUNNY   45  34  65 N26G37    29.83R
DEVILS LAKE    SUNNY     45  34  65 NW22      29.90R
$$

NDZ022-023-025-028>030-036>039-047>053-291700-
SOUTHEAST NORTH DAKOTA

CITY           SKY/WX    TMP DP  RH WIND       PRES   REMARKS
FARGO          LGT RAIN  47  36  65 NW29G35   29.81R
JAMESTOWN      SUNNY     45  33  63 NW25G37   29.91R
$$



USA.gov is the U.S. government's official web portal to all federal, state and local government web resources and services.